FW5107 Weather Reports


time (UTC)temp
C
wind
direction
speed
KPH
gust
KPH
rain 1hr
cm
rain 24hr
cm
rain mn
cm
humidity
%
barometer
mb
20260507220006 11 166 1.6 8.0 0.00 2.06 2.06 95 1002.0
20260507214505 11 170 6.4 11.3 0.00 2.06 2.06 95 1002.1
20260507213005 11 178 3.2 9.7 0.00 2.06 2.06 96 1002.2
20260507211504 11 168 0.0 8.0 0.00 2.06 2.06 96 1003.0
20260507210003 11 223 6.4 17.7 0.05 2.06 2.06 95 1002.5
20260507204502 11 253 6.4 16.1 0.05 2.06 2.06 95 1002.1
20260507203004 11 183 4.8 12.9 0.10 2.06 2.06 96 1001.6
20260507201612 11 199 4.8 14.5 0.18 2.06 2.06 95 1001.8
20260507200104 11 195 3.2 17.7 0.25 2.03 2.03 95 1001.8
20260507194557 11 171 4.8 12.9 0.43 2.01 2.01 95 1002.7
20260507193053 11 350 3.2 14.5 0.53 1.96 1.96 96 1002.7
20260507191553 11 126 3.2 6.4 0.66 1.88 1.88 96 1003.3
20260507190048 11 213 1.6 4.8 0.71 1.75 1.75 96 1004.1
20260507184547 11 209 3.2 12.9 0.79 1.57 1.57 96 1004.5
20260507183045 11 204 4.8 12.9 1.04 1.40 1.40 96 1004.6
20260507181544 11 170 4.8 14.5 1.14 1.22 1.22 95 1004.7
20260507180046 10 171 3.2 14.5 0.94 0.99 0.99 95 1005.1
20260507174543 10 227 4.8 11.3 0.79 0.79 0.79 95 1005.7
20260507173041 10 211 3.2 14.5 0.33 0.33 0.33 94 1005.6
20260507171541 10 201 6.4 25.7 0.08 0.08 0.08 94 1005.0
20260507170038 10 218 1.6 20.9 0.05 0.05 0.05 94 1004.9
20260507164536 10 191 8.0 29.0 0.00 0.00 0.00 93 1005.2
20260507163033 11 208 9.7 19.3 0.00 0.00 0.00 92 1005.8
20260507161531 11 162 11.3 24.1 0.00 0.00 0.00 92 1006.2
20260507160034 11 195 12.9 25.7 0.00 0.00 0.00 92 1006.5
20260507154529 11 195 6.4 25.7 0.00 0.00 0.00 92 1006.8
20260507153031 11 164 9.7 30.6 0.00 0.00 0.00 91 1007.0
20260507151522 12 151 12.9 27.4 0.00 0.00 0.00 90 1007.5
20260507150022 12 187 14.5 35.4 0.00 0.00 0.00 89 1007.9
20260507144520 12 143 11.3 24.1 0.00 0.00 0.00 90 1008.2
20260507143020 12 174 12.9 25.7 0.00 0.00 0.00 90 1008.3
20260507141517 12 155 9.7 20.9 0.00 0.00 0.00 91 1008.2
20260507140024 12 180 8.0 25.7 0.00 0.00 0.00 91 1008.6
20260507134513 12 205 8.0 27.4 0.00 0.00 0.00 91 1009.0
20260507133012 12 217 11.3 32.2 0.00 0.00 0.00 91 1009.1
20260507131511 12 186 16.1 25.7 0.00 0.00 0.00 91 1009.1
20260507130009 12 177 8.0 32.2 0.00 0.00 0.00 91 1009.3
20260507124513 12 190 11.3 20.9 0.00 0.00 0.00 92 1009.5
20260507123006 12 205 8.0 24.1 0.00 0.00 0.00 92 1009.4
20260507121504 12 350 8.0 35.4 0.00 0.00 0.00 93 1009.2
20260507114558 11 185 12.9 25.7 0.00 0.00 0.00 94 1009.5
20260507113055 11 176 11.3 22.5 0.00 0.00 0.00 94 1009.9
20260507111554 11 138 9.7 24.1 0.00 0.00 0.00 95 1010.1
20260507110053 11 199 6.4 25.7 0.00 0.00 0.00 95 1010.1
20260507104548 11 147 6.4 22.5 0.00 0.00 0.00 95 1010.3
20260507103046 11 163 8.0 19.3 0.00 0.00 0.00 95 1010.5
20260507101600 11 191 8.0 19.3 0.00 0.00 0.00 95 1010.3
20260507100042 11 158 6.4 14.5 0.00 0.00 0.00 95 1011.2
20260507094551 11 147 6.4 20.9 0.00 0.00 0.00 95 1011.0
20260507093039 11 184 4.8 14.5 0.00 0.00 0.00 95 1011.5
20260507091553 11 199 8.0 14.5 0.00 0.00 0.00 95 1011.5
20260507090043 11 188 4.8 25.7 0.00 0.00 0.00 95 1011.5
20260507084536 11 189 8.0 19.3 0.00 0.00 0.00 95 1011.4
20260507083032 10 192 9.7 17.7 0.00 0.00 0.00 95 1012.0
20260507081538 10 182 6.4 16.1 0.00 0.00 0.00 95 1011.9
20260507080025 10 188 4.8 14.5 0.00 0.00 0.00 95 1011.9
20260507074529 10 172 4.8 12.9 0.00 0.00 0.00 95 1012.1
20260507073022 10 156 4.8 9.7 0.00 0.00 0.00 94 1012.4
20260507071521 10 170 3.2 12.9 0.00 0.00 0.00 94 1012.6
20260507070017 10 206 3.2 11.3 0.00 0.00 0.00 94 1013.4
20260507064519 10 172 3.2 16.1 0.00 0.00 0.00 94 1013.4
20260507063016 10 172 4.8 11.3 0.00 0.00 0.00 94 1013.5
20260507061528 10 350 6.4 14.5 0.00 0.00 0.00 94 1013.5
20260507060025 10 202 4.8 12.9 0.00 0.00 0.00 94 1013.8
20260507054512 10 173 6.4 14.5 0.00 0.00 0.00 94 1013.6
20260507053011 10 192 1.6 8.0 0.00 0.00 0.00 94 1014.3
20260507051505 10 253 0.0 0.0 0.00 0.00 0.00 94 1014.6
20260507050006 10 253 0.0 0.0 0.00 0.00 0.00 94 1015.0
20260507044501 10 244 0.0 0.0 0.00 0.00 0.00 94 1015.3
20260507043058 10 242 0.0 4.8 0.00 0.00 0.00 94 1015.8
20260507041555 9 242 1.6 4.8 0.00 0.00 0.00 94 1016.1
20260507040053 8 245 1.6 3.2 0.00 0.00 0.00 94 1016.3
20260507034551 8 245 0.0 3.2 0.00 0.00 0.00 93 1016.8
20260507033048 8 244 0.0 3.2 0.00 0.00 0.00 93 1017.0
20260507031547 9 244 0.0 4.8 0.00 0.00 0.00 92 1017.2
20260507030046 9 244 1.6 4.8 0.00 0.00 0.00 92 1017.4
20260507024544 9 244 3.2 6.4 0.00 0.00 0.00 92 1017.4
20260507023040 10 230 3.2 6.4 0.00 0.00 0.00 92 1017.4
20260507021539 10 208 3.2 12.9 0.00 0.00 0.00 91 1017.5
20260506231543 12 211 9.7 19.3 0.00 0.00 0.00 81 1017.7
20260506230043 12 194 11.3 25.7 0.00 0.00 0.00 80 1017.7
20260506224540 12 178 6.4 22.5 0.00 0.00 0.00 79 1017.6
20260506223038 13 215 9.7 24.1 0.00 0.00 0.00 77 1017.4
20260506221537 13 201 8.0 25.7 0.00 0.00 0.00 75 1017.3